Lancaster, PA

8:26 PM EDT on August 29, 2016 (GMT -0400)
Lancaster

Weather History for KLNS - January, 2014

Change the Weather History Date:

Friday, January 3, 2014

  Actual Average Record
Temperature  
Mean Temperature 12 °F -  
Max Temperature 21 °F 39 °F 73 °F (2000)
Min Temperature 3 °F 23 °F 3 °F (2014)
Degree Days  
Heating Degree Days 53    
Moisture  
Dew Point 5 °F    
Average Humidity 71    
Maximum Humidity 93    
Minimum Humidity 39    
Precipitation  
Precipitation 0.01 in - - ()
Sea Level Pressure  
Sea Level Pressure 30.01 in    
Wind  
Wind Speed 14 mph (NNW)    
Max Wind Speed 29 mph    
Max Gust Speed 45 mph    
Visibility 5 miles    
Events Snow    
Averages and records for this station are not official NWS values.
T = Trace of Precipitation, MM = Missing Value Source: NWS Daily Summary

Daily Weather History Graph

Daily Weather History Graph

Search for Another Location

Airport or City:

Trip Planner

Search our weather history database for the weather conditions in past years. The results will help you decide how hot, cold, wet, or windy it might be!

Date:

Astronomy

Jan. 03, 2014 Rise Set
Actual Time 7:27 AM EST 4:52 PM EST
Civil Twilight 6:57 AM EST 5:22 PM EST
Nautical Twilight 6:23 AM EST 5:56 PM EST
Astronomical Twilight 5:50 AM EST 6:29 PM EST
Moon 8:51 AM EST (1/3) 7:58 PM EST (1/3)
Length of Visible Light 10h 25m
Length of Day
9h 24m
Waxing Crescent, 8% of the Moon is Illuminated
Jan 3
Waxing Crescent
Jan 7
First Quarter
Jan 15
Full
Jan 24
Last Quarter
Jan 30
New

Hourly Weather History & Observations

Time (EST) Temp. Windchill Dew Point Humidity Pressure Visibility Wind Dir Wind Speed Gust Speed Precip Events Conditions
12:35 AM 19.4 °F 8.6 °F 17.6 °F 93% 29.67 in 1.2 mi NNE 9.2 mph - 0.01 in Snow Light Snow
12:53 AM 19.9 °F 7.3 °F 17.1 °F 89% 29.68 in 1.2 mi NNE 12.7 mph - 0.01 in Snow Light Snow
1:09 AM 19.4 °F 6.6 °F 17.6 °F 93% 29.68 in 1.0 mi North 12.7 mph - 0.00 in Snow Light Snow
1:23 AM 21.2 °F 12.6 °F 17.6 °F 86% 29.67 in 1.8 mi NNE 6.9 mph - 0.00 in Snow Light Snow
1:35 AM 21.2 °F 10.9 °F 17.6 °F 86% 29.68 in 2.0 mi NNW 9.2 mph - 0.00 in Snow Light Snow
1:53 AM 21.0 °F 9.9 °F 17.1 °F 85% 29.72 in 2.0 mi NNW 10.4 mph - 0.00 in Snow Light Snow
2:00 AM 21.2 °F 8.3 °F 17.6 °F 86% 29.71 in 1.8 mi North 13.8 mph 19.6 mph 0.00 in Snow Light Snow
2:10 AM 21.2 °F 9.5 °F 15.8 °F 80% 29.71 in 2.0 mi NNW 11.5 mph - 0.00 in Snow Light Snow
2:26 AM 19.4 °F 6.6 °F 17.6 °F 93% 29.72 in 1.0 mi North 12.7 mph - 0.00 in Snow Light Snow
2:36 AM 19.4 °F 6.0 °F 15.8 °F 86% 29.73 in 0.8 mi NNW 13.8 mph 20.7 mph 0.00 in Snow Light Snow
2:44 AM 19.4 °F 6.0 °F 14.0 °F 80% 29.74 in 1.2 mi NNW 13.8 mph - 0.00 in Snow Light Snow
2:51 AM 17.6 °F 2.2 °F 14.0 °F 86% 29.75 in 2.0 mi NNW 17.3 mph - 0.00 in Snow Light Snow
2:53 AM 18.0 °F 1.7 °F 12.9 °F 81% 29.77 in 2.5 mi North 19.6 mph 24.2 mph 0.00 in Snow Light Snow
3:22 AM 17.6 °F 3.7 °F 12.2 °F 79% 29.76 in 2.5 mi NNW 13.8 mph - 0.00 in Snow Light Snow
3:36 AM 15.8 °F -0.2 °F 12.2 °F 86% 29.77 in 1.8 mi NNW 17.3 mph 29.9 mph 0.00 in Snow Light Snow
3:53 AM 15.1 °F -1.6 °F 10.0 °F 80% 29.80 in 1.8 mi NNW 18.4 mph - 0.00 in Snow Light Snow
4:13 AM 14.0 °F -3.0 °F 8.6 °F 79% 29.80 in 2.0 mi NNW 18.4 mph 28.8 mph 0.00 in Snow Light Snow
4:23 AM 14.0 °F -3.0 °F 8.6 °F 79% 29.80 in 1.8 mi NW 18.4 mph - 0.00 in Snow Light Snow
4:53 AM 12.9 °F -6.1 °F 7.0 °F 77% 29.84 in 1.5 mi NNW 23.0 mph 31.1 mph 0.00 in Snow Light Snow
5:11 AM 12.2 °F -7.1 °F 6.8 °F 79% 29.84 in 2.0 mi NNW 23.0 mph 34.5 mph 0.00 in Snow Light Snow
5:19 AM 12.2 °F -5.8 °F 6.8 °F 79% 29.86 in 2.0 mi NNW 19.6 mph 34.5 mph 0.00 in Snow Light Snow
5:33 AM 12.2 °F -5.3 °F 5.0 °F 73% 29.88 in 3.0 mi NW 18.4 mph 31.1 mph 0.00 in Snow Light Snow
5:53 AM 12.0 °F -7.3 °F 3.0 °F 67% 29.93 in 3.0 mi NNW 23.0 mph 32.2 mph 0.00 in Snow Light Snow
6:53 AM 10.9 °F -7.0 °F 1.0 °F 64% 30.01 in 10.0 mi NW 18.4 mph 27.6 mph 0.00 in   Overcast
7:39 AM 10.4 °F -11.4 °F 1.4 °F 67% 30.02 in 1.8 mi NW 28.8 mph 44.9 mph N/A Snow Blowing Snow
7:46 AM 10.4 °F -10.7 °F 1.4 °F 67% 30.04 in 10.0 mi NW 26.5 mph 39.1 mph 0.00 in Snow Light Snow
7:53 AM 10.0 °F -9.5 °F -0.0 °F 64% 30.07 in 10.0 mi NW 21.9 mph 32.2 mph 0.00 in Snow Light Snow
8:53 AM 9.0 °F -11.8 °F -0.9 °F 64% 30.12 in 1.5 mi NW 24.2 mph 33.4 mph 0.00 in Snow Blowing Snow
9:03 AM 8.6 °F -10.0 °F -0.4 °F 67% 30.12 in 3.0 mi NW 18.4 mph - 0.00 in Snow Blowing Snow
9:45 AM 10.4 °F -11.4 °F -0.4 °F 62% 30.14 in 1.8 mi NW 28.8 mph 35.7 mph 0.00 in Snow Blowing Snow
9:53 AM 10.9 °F -9.6 °F -0.9 °F 59% 30.18 in 10.0 mi NW 25.3 mph 35.7 mph 0.00 in   Clear
10:53 AM 12.0 °F -7.7 °F -0.0 °F 59% 30.22 in 9.0 mi NW 24.2 mph 28.8 mph N/A   Clear
11:53 AM 12.9 °F -5.3 °F -0.0 °F 56% 30.23 in 9.0 mi NW 20.7 mph 29.9 mph N/A   Clear
12:53 PM 14.0 °F -2.0 °F -2.0 °F 49% 30.25 in 10.0 mi NW 16.1 mph - N/A   Clear
1:53 PM 15.1 °F -2.0 °F -2.9 °F 45% 30.26 in 10.0 mi NW 19.6 mph - N/A   Clear
2:53 PM 16.0 °F 2.9 °F -4.0 °F 41% 30.30 in 10.0 mi NW 11.5 mph - N/A   Clear
3:53 PM 16.0 °F 2.3 °F -5.1 °F 39% 30.32 in 10.0 mi NNW 12.7 mph - N/A   Clear
4:53 PM 14.0 °F 2.0 °F -5.1 °F 43% 30.38 in 10.0 mi NW 9.2 mph - N/A   Clear
5:53 PM 12.9 °F 6.9 °F -6.0 °F 43% 30.41 in 10.0 mi NW 3.5 mph - N/A   Clear
6:53 PM 10.0 °F - -2.9 °F 56% 30.44 in 10.0 mi Calm Calm - N/A   Clear
7:53 PM 10.9 °F - -4.0 °F 51% 30.48 in 10.0 mi Calm Calm - N/A   Clear
8:53 PM 3.9 °F -3.4 °F -4.0 °F 70% 30.48 in 10.0 mi WNW 3.5 mph - N/A   Clear
9:53 PM 3.0 °F - -6.0 °F 66% 30.48 in 10.0 mi Calm Calm - N/A   Clear
10:53 PM 3.9 °F - -2.9 °F 73% 30.50 in 10.0 mi Calm Calm - N/A   Clear
11:53 PM 3.9 °F - -2.9 °F 73% 30.49 in 10.0 mi Calm Calm - N/A   Clear